Weather History for Bishop, CA

Change the Weather History Date:

Wednesday, January 8, 2014

  Actual Average Record
Temperature  
Mean Temperature 38 °F 38 °F  
Max Temperature 60 °F 53 °F 72 °F (1945)
Min Temperature 16 °F 22 °F 2 °F (1955)
Degree Days  
Heating Degree Days 27 27  
Month to date heating degree days 190 218  
Since 1 July heating degree days 1998 1965  
Cooling Degree Days 0 0  
Month to date cooling degree days 0 0  
Year to date cooling degree days 0 0  
Moisture  
Dew Point 7 °F    
Average Humidity 35    
Maximum Humidity 56    
Minimum Humidity 14    
Precipitation  
Precipitation 0.00 in 0.04 in 1.15 in (2005)
Month to date precipitation 0.00 0.33  
Year to date precipitation 0.00 0.33  
Snow  
Snow 0.00 in 0.10 in 2.70 in (1973)
Month to date snowfall 0.0 0.9  
Since 1 July snowfall 0.5 2.6  
Snow Depth 0.00 in    
Sea Level Pressure  
Sea Level Pressure 30.10 in    
Wind  
Wind Speed 6 mph (NE)    
Max Wind Speed 16 mph    
Max Gust Speed 20 mph    
Visibility 10 miles    
Events      
T = Trace of Precipitation, MM = Missing Value Source: NWS Daily Summary

Daily Weather History Graph

Daily Weather History Graph

Search for Another Location

Airport:

Trip Planner

Search our weather history database for the weather conditions in past years. The results will help you decide how hot, cold, wet, or windy it might be!

Date:

Astronomy

Jan. 08, 2014 Rise Set
Actual Time 7:08 AM PST 4:52 PM PST
Civil Twilight 6:39 AM PST 5:21 PM PST
Nautical Twilight 6:06 AM PST 5:53 PM PST
Astronomical Twilight 5:35 AM PST 6:25 PM PST
Moon 11:44 AM PST (1/8) 12:22 AM PST (1/8)
Length of Visible Light 10h 42m
Length of Day
9h 44m
First Quarter, 57% of the Moon is Illuminated
Jan 8
First Quarter
Jan 15
Full
Jan 23
Last Quarter
Jan 30
New
Feb 6
First Quarter

Hourly Weather History & Observations

Time (PST) Temp. Windchill Dew Point Humidity Pressure Visibility Wind Dir Wind Speed Gust Speed Precip Events Conditions
12:56 AM 21.9 °F 17.2 °F 3.9 °F 46% 30.10 in 10.0 mi Variable 3.5 mph - N/A   Clear
1:56 AM 19.9 °F 10.1 °F 3.0 °F 48% 30.10 in 10.0 mi North 8.1 mph - N/A   Clear
2:56 AM 25.0 °F 14.2 °F 6.1 °F 45% 30.09 in 10.0 mi NW 11.5 mph - N/A   Clear
3:56 AM 25.0 °F 16.3 °F 6.1 °F 45% 30.07 in 10.0 mi NNW 8.1 mph - N/A   Clear
4:56 AM 24.1 °F 18.2 °F 7.0 °F 48% 30.07 in 10.0 mi Variable 4.6 mph - N/A   Clear
5:56 AM 24.1 °F 17.0 °F 7.0 °F 48% 30.12 in 10.0 mi Variable 5.8 mph - N/A   Clear
6:56 AM 18.0 °F 11.1 °F 5.0 °F 57% 30.18 in 10.0 mi ESE 4.6 mph - N/A   Clear
7:56 AM 24.1 °F 18.2 °F 7.0 °F 48% 30.17 in 10.0 mi SSW 4.6 mph - N/A   Clear
8:56 AM 36.0 °F - 10.0 °F 34% 30.17 in 10.0 mi Calm Calm - N/A   Clear
9:56 AM 42.1 °F - 10.0 °F 27% 30.17 in 10.0 mi Calm Calm - N/A   Clear
10:56 AM 50.0 °F - 10.0 °F 20% 30.12 in 10.0 mi SE 3.5 mph - N/A   Clear
11:56 AM 55.9 °F - 10.9 °F 17% 30.06 in 10.0 mi South 8.1 mph - N/A   Clear
12:56 PM 57.0 °F - 10.9 °F 16% 30.01 in 10.0 mi SSE 10.4 mph - N/A   Clear
1:56 PM 60.1 °F - 10.0 °F 14% 29.99 in 10.0 mi SSE 11.5 mph - N/A   Clear
2:56 PM 57.9 °F - 9.0 °F 14% 30.00 in 10.0 mi SSE 12.7 mph - N/A   Clear
3:56 PM 57.0 °F - 9.0 °F 15% 30.03 in 10.0 mi SSE 5.8 mph - N/A   Mostly Cloudy
4:56 PM 54.0 °F - 9.0 °F 17% 30.04 in 10.0 mi South 6.9 mph - N/A   Partly Cloudy
5:56 PM 46.9 °F - 7.0 °F 20% 30.07 in 10.0 mi North 3.5 mph - N/A   Clear
6:56 PM 39.9 °F 35.8 °F 6.1 °F 25% 30.14 in 10.0 mi NNW 5.8 mph - N/A   Clear
7:56 PM 37.9 °F 34.4 °F 8.1 °F 29% 30.12 in 10.0 mi West 4.6 mph - N/A   Clear
8:56 PM 30.9 °F 24.3 °F 6.1 °F 35% 30.13 in 10.0 mi NNW 6.9 mph - N/A   Clear
9:56 PM 30.0 °F 23.2 °F 7.0 °F 38% 30.13 in 10.0 mi NW 6.9 mph - N/A   Clear
10:56 PM 26.1 °F 19.4 °F 3.9 °F 39% 30.11 in 10.0 mi North 5.8 mph - N/A   Clear
11:56 PM 26.1 °F 19.4 °F 3.9 °F 39% 30.07 in 10.0 mi NE 5.8 mph - N/A   Clear